Flag for India Weather past 2 weeks in Ahmedabad, Gujarat, India

Now
86 °F

Fog.


Feels Like: 105 °F
Forecast: 83 / 97 °F
Wind: 6 mph from Southwest

Location: Ahmadabad Airport

Current Time: Aug 30, 2014 at 6:42:49 PM

Latest Report: Aug 30, 2014 at 6:10 PM


Visibility: 2 mi

Pressure: 29.53 "Hg

Humidity: 89%

Dew point: 82 °F

Location of AhmedabadLocation

Historic Weather in Ahmedabad — Graph

°F

Ahmedabad temperature yesterday

Maximum temperature yesterday: 99 °F (at 3:40 PM)
Minimum temperature yesterday: 81 °F (at 11:40 PM)
Average temperature yesterday: 89 °F

Past Weeks' High & Low Weather Summary

 TemperatureHumidityPressure
High99 °F (Aug 20, 2:40 PM)100% (Aug 24, 8:10 PM)29.86 "Hg (Aug 24, 8:10 PM)
Low77 °F (Aug 25, 5:40 AM)47% (Aug 29, 4:40 PM)29.50 "Hg (Aug 30, 4:40 PM)
Average87 °F73%29.70 "Hg
* Reported Aug 15 5:40 PM — Aug 30 5:10 PM, Ahmedabad, Weather by CustomWeather, © 2014

Note: Actual official high and low records may vary slightly from our data, if they occured in-between our weather recording intervals... More about our weather records

Advertising

Ahmedabad weather history for previous 24 hours

 ConditionsComfort  
Time TempWeatherWind HumidityBarometerVisibility
5:10 PM
Aug 30
88 °FFog.5 mph84%29.53 "Hg2 mi
4:40 PM88 °FFog.5 mph84%29.50 "Hg2 mi
4:10 PM88 °FFog.3 mph84%29.53 "Hg2 mi
3:40 PM88 °FFog.3 mph84%29.53 "Hg2 mi
2:40 PM86 °FFog.6 mph89%29.56 "Hg1 mi
1:40 PM84 °FFog.5 mph100%29.59 "Hg1 mi
1:10 PM82 °FFog.5 mph100%29.65 "Hg1 mi
12:40 PM81 °FLight rain. Cloudy.5 mph100%29.65 "HgN/A
12:10 PM81 °FFog.3 mph100%29.65 "Hg1 mi
10:10 AM79 °FLight rain. More clouds than sun.3 mph100%29.68 "Hg1 mi
8:40 AM79 °FDrizzle. More clouds than sun.7 mph100%29.68 "Hg1 mi
8:10 AM79 °FFog.6 mph100%29.65 "Hg1 mi
7:40 AM79 °FFog.6 mph100%29.65 "Hg1 mi
7:10 AM77 °FFog.6 mph100%29.62 "Hg1 mi
6:10 AM79 °FFog.6 mph94%29.62 "Hg2 mi
5:40 AM77 °FFog.6 mph100%29.62 "Hg2 mi
5:10 AM77 °FLight rain. Passing clouds.6 mph100%29.62 "Hg2 mi
4:40 AM77 °FLight rain. Passing clouds.6 mph100%29.62 "Hg2 mi
4:10 AM79 °FLight rain. Passing clouds.6 mph94%29.62 "Hg2 mi
3:40 AM79 °FLight rain. Passing clouds.6 mph94%29.62 "Hg2 mi
3:10 AM77 °FLight rain. Passing clouds.6 mph100%29.62 "Hg2 mi
2:10 AM77 °FLight rain. Passing clouds.2 mph94%29.65 "Hg2 mi
12:40 AM81 °FFog.6 mph94%29.68 "Hg2 mi
12:10 AM81 °FLight rain. Passing clouds.5 mph94%29.65 "Hg2 mi
11:40 PM
Aug 29
81 °FLight rain. Passing clouds.5 mph94%29.65 "Hg2 mi
11:10 PM82 °FFog.6 mph84%29.68 "Hg2 mi
10:40 PM84 °FPassing clouds.3 mph79%29.68 "Hg2 mi
10:10 PM86 °FPassing clouds.6 mph75%29.65 "Hg2 mi
9:40 PM88 °FWarm.N/A66%29.65 "HgN/A
7:40 PM91 °FPassing clouds.No wind56%29.59 "Hg2 mi
6:40 PM93 °FScattered clouds.5 mph63%29.56 "Hg4 mi
6:10 PM95 °FScattered clouds.5 mph56%29.56 "Hg4 mi
Weather by CustomWeather, © 2014

See weather overviewHow to use our weather pages